Погода в Гуково

Россия / Ростовская область     47°59′00″N   39°56′36″E
темп.,
°C
ветер,
м/с
пор.,
м/с
влажн.,
%
обл.,
%
осадки,
мм/ч
давл.,
гПа
погр.,
м
8 мая, сб
сб800:00+10в3580100 0.0 101787
03:00+10юв368496 0.0 1016132
06:00+10ююв368855 0.0 1016149
09:00+16ю686463 0.0 1014589
12:00+20ю71055100 0.0 10131550
15:00+21ююз8104997 0.0 10111771
18:00+20ююз595752 0.0 1010740
21:00+15ю3776100 0.0 1010105
9 мая, вс
вс900:00+14зюз3685100 0.0 1008108
03:00+10ссз91388100 0.3 1010510
06:00+7ссз91493100 2.8 1011634
09:00+5ссз91492100 4.7 1013716
12:00+8ссз71283100 1.6 10151152
15:00+9ссз91270100 1.8 10171399
18:00+10с6126690 0.1 10181534
21:00+7с2475100 0.1 1021147
10 мая, пн
пн1000:00+6сз41077100 0.0 1021471
03:00+5сз51177100 0.0 1021457
06:00+5сз71379100 0.0 1022596
09:00+8ссз91367100 0.2 10201362
12:00+6ссз81485100 3.3 10201251
15:00+6ссз81493100 9.4 10181165
18:00+5ссз91494100 4.3 1015917
21:00+6ссз71397100 9.8 1013706
11 мая, вт
вт1100:00+7зсз3898100 6.5 1009340
03:00+6всв5898100 6.9 1011542
06:00+5всв6997100 0.4 1013787
09:00+5св6994100 0.6 1014966
12:00+6вюв91194100 0.7 10141058
15:00+6вюв152096100 4.0 10131002
18:00+7юв91397100 0.3 1017805
21:00+7юв71298100 0.5 1018601
12 мая, ср
ср1200:00+7ююв71397100 0.2 1019754
03:00+7юв41097100 1.5 1020450
06:00+7в359599 0.1 1020183
09:00+12в697556 0.1 1019672
12:00+16юв8106097 0.0 10181476
15:00+17юв7856100 0.0 10171491
18:00+16юв586674 0.0 1017763
21:00+11вюв228530 0.0 101719